{"data":{"norad_id":37605,"intl_designator":"2011-022A","name":"GSAT-8 (GAGAN/PRN 127)","alt_names":[],"object_type":"PAYLOAD","status":"ACTIVE","operator":null,"country":"IND","launch_date":"2011-05-20","launch_site_code":"FRGUI","launch_vehicle":null,"mission":null,"orbit_class":"UNKNOWN","rcs_meters":6.3096,"size_class":null,"mass_kg":null,"dimensions":null,"purposes":["comms","nav"],"wikipedia_slug":null,"has_3d_model":false,"image_url":null,"decayed_at":null,"tle_current":{"epoch":"2026-05-25T04:00:23.251392Z","epoch_age_seconds":54007,"freshness":"FRESH","line1":"1 37605U 11022A   26145.16693578  .00000083  00000+0  00000+0 0  9999","line2":"2 37605   2.0739  82.0911 0002885 226.5813  49.2516  1.00270088 52982","mean_motion":1.00270088,"eccentricity":0.0002885,"inclination_deg":2.0739,"raan_deg":82.0911,"arg_perigee_deg":226.5813,"mean_anomaly_deg":49.2516,"bstar":0,"rev_number":5298,"period_min":1436.1212089492,"perigee_km":35774.906036182,"apogee_km":35799.235361024,"semimajor_km":42165.207698603,"source":"CELESTRAK","updated_at":"2026-05-25T13:38:24.337808Z"}}}